Weather History for CYXU - November, 2012

Change the Weather History Date:

Tuesday, November 27, 2012

  Actual Average Record
Temperature  
Mean Temperature 29 °F -  
Max Temperature 35 °F 39 °F 59 °F (2006)
Min Temperature 23 °F 28 °F 12 °F (1996)
Degree Days  
Heating Degree Days 36    
Moisture  
Dew Point 21 °F    
Average Humidity 68    
Maximum Humidity 80    
Minimum Humidity 45    
Precipitation  
Precipitation 0.00 in - - ()
Sea Level Pressure  
Sea Level Pressure 30.29 in    
Wind  
Wind Speed 5 mph ()    
Max Wind Speed 8 mph    
Max Gust Speed -    
Visibility 14.4 miles    
Events      
Averages and records for this station are not official NWS values.
T = Trace of Precipitation, MM = Missing Value Source: Averaged Metar Reports

Daily Weather History Graph

Daily Weather History Graph

Search for Another Location

Airport or City:

Trip Planner

Search our weather history database for the weather conditions in past years. The results will help you decide how hot, cold, wet, or windy it might be!

Date:

Astronomy

Nov. 27, 2012 Rise Set
Actual Time 7:32 AM EST 4:52 PM EST
Civil Twilight 7:00 AM EST 5:23 PM EST
Nautical Twilight 6:25 AM EST 5:58 PM EST
Astronomical Twilight 5:51 AM EST 6:33 PM EST
Moon 4:23 PM EST (11/27) 6:35 AM EST (11/27)
Length of Visible Light 10h 23m
Length of Day
9h 19m
Waxing Gibbous, 99% of the Moon is Illuminated
Nov 27
Waxing Gibbous
Nov 28
Full
Dec 6
Last Quarter
Dec 13
New
Dec 20
First Quarter

Hourly Weather History & Observations

Time (EST) Temp. Windchill Dew Point Humidity Pressure Visibility Wind Dir Wind Speed Gust Speed Precip Events Conditions
12:00 AM 30.2 °F 22.6 °F 19.4 °F 64% 30.27 in 15.0 mi West 8.1 mph - N/A   Overcast
1:00 AM 29 °F - 21 °F 60% 30.27 in 15 mi WSW 6.9 mph - -   Overcast
1:00 AM 28.4 °F 21.2 °F 21.2 °F 74% 30.27 in 15.0 mi West 6.9 mph - N/A   Overcast
2:00 AM 28.4 °F 22.2 °F 21.2 °F 74% 30.27 in 15.0 mi West 5.8 mph - N/A   Overcast
3:00 AM 28.4 °F 20.4 °F 21.2 °F 74% 30.27 in 15.0 mi WSW 8.1 mph - N/A   Mostly Cloudy
4:00 AM 28.4 °F 20.4 °F 21.2 °F 74% 30.27 in 15.0 mi West 8.1 mph - N/A   Overcast
5:00 AM 28.4 °F 21.2 °F 23.0 °F 80% 30.27 in 15.0 mi West 6.9 mph - N/A   Overcast
6:00 AM 30.2 °F 24.3 °F 23.0 °F 75% 30.27 in 15.0 mi WNW 5.8 mph - N/A   Overcast
7:00 AM 30 °F - 23 °F 67% 30.29 in 15 mi NW 4.6 mph - -   Overcast
7:00 AM 30.2 °F 25.4 °F 23.0 °F 75% 30.28 in 15.0 mi NW 4.6 mph - N/A   Overcast
8:00 AM 30.2 °F 22.6 °F 21.2 °F 69% 30.31 in 15.0 mi NW 8.1 mph - N/A   Mostly Cloudy
9:00 AM 30.2 °F 23.4 °F 21.2 °F 69% 30.33 in 15.0 mi NW 6.9 mph - N/A   Mostly Cloudy
10:00 AM 33.8 °F 27.0 °F 21.2 °F 60% 30.33 in 0.0 mi West 8.1 mph - N/A   Mostly Cloudy
11:00 AM 32.0 °F 28.7 °F 17.6 °F 55% 30.34 in 15.0 mi WNW 3.5 mph - N/A   Mostly Cloudy
12:00 PM 33.8 °F - 19.4 °F 56% 30.32 in 15.0 mi Calm Calm - N/A   Mostly Cloudy
1:00 PM 34 °F - 20 °F 45% 30.31 in 15 mi North 5.8 mph - -  
1:00 PM 33.8 °F 29.6 °F 21.2 °F 60% 30.31 in 15.0 mi North 4.6 mph - N/A   Mostly Cloudy
2:00 PM 33.8 °F 29.6 °F 21.2 °F 60% 30.30 in 15.0 mi North 4.6 mph - N/A   Mostly Cloudy
3:00 PM 35.6 °F 32.8 °F 21.2 °F 56% 30.27 in 15.0 mi NNW 3.5 mph - N/A   Mostly Cloudy
4:00 PM 33.8 °F 27.0 °F 19.4 °F 56% 30.28 in 40.0 mi WSW 8.1 mph - N/A   Scattered Clouds
5:00 PM 30.2 °F 22.6 °F 21.2 °F 69% 30.28 in 15.0 mi SW 8.1 mph - N/A   Scattered Clouds
6:00 PM 28.4 °F 22.2 °F 21.2 °F 74% 30.29 in 15.0 mi SW 5.8 mph - N/A   Partly Cloudy
7:00 PM 26.6 °F 22.6 °F 19.4 °F 74% 30.29 in 15.0 mi SW 3.5 mph - N/A   Partly Cloudy
8:00 PM 26.6 °F - 19.4 °F 74% 30.29 in 15.0 mi WSW 2.3 mph - N/A   Clear
9:00 PM 23.0 °F 15.8 °F 17.6 °F 80% 30.29 in 15.0 mi SSW 5.8 mph - N/A   Clear
10:00 PM 24.8 °F - 19.4 °F 80% 30.28 in 15.0 mi SSW 2.3 mph - N/A   Partly Cloudy
11:00 PM 23.0 °F 15.8 °F 17.6 °F 80% 30.27 in 15.0 mi WSW 5.8 mph - N/A   Partly Cloudy